DW5082 Tarrytown NY US current weather conditions

sailwx.info

Wind from 050

Air temperature 18.9° C
Dewpoint 14.6° C

Last reported at 2020-Aug-15 09:07 UTC.
Time now 2020-Aug-15 10:08 UTC

Location: N 41°03' W 073°51'.
View on Google Maps.

See reports from other nearby stations

  
Tides and Currents Weather Stations Pressure Air Temp Water Temp Dewpoint Dewpoint Depression Visibility Wind Speed Wind Dir Waves Ship Positions
date/time (UTC)wind fromknots sea level pressurealtimeterstation pressurevisibilityair tempwater tempwave heightnotes
2020-Aug-15 09:07 050 18.9
2020-Aug-15 09:02 050 18.9
2020-Aug-15 08:47 127 18.3
2020-Aug-15 08:42 127 18.3
2020-Aug-15 08:37 127 18.3
2020-Aug-15 08:32 127 18.3
2020-Aug-15 08:17 127 18.9
2020-Aug-15 08:12 127 18.9
2020-Aug-15 08:07 127 18.9
2020-Aug-15 08:02 127 18.9
2020-Aug-15 07:47 068 18.9
2020-Aug-15 07:42 069 18.9
2020-Aug-15 07:37 069 19.4
2020-Aug-15 07:32 069 19.4
2020-Aug-15 07:17 069 18.9
2020-Aug-15 07:12 069 18.9
2020-Aug-15 07:07 069 18.9
2020-Aug-15 07:02 069 18.9
2020-Aug-15 06:47 069 19.4
2020-Aug-15 06:42 069 19.4
2020-Aug-15 06:37 069 19.4
2020-Aug-15 06:32 069 19.4
2020-Aug-15 06:17 069 19.4
2020-Aug-15 06:12 069 19.4
2020-Aug-15 06:07 069 19.4
2020-Aug-15 06:02 069 19.4
2020-Aug-15 05:47 069 20.0
2020-Aug-15 05:42 069 20.0
2020-Aug-15 05:37 069 20.6
2020-Aug-15 05:32 069 20.6
2020-Aug-15 05:17 069 20.6
2020-Aug-15 05:12 069 20.6
2020-Aug-15 05:07 069 20.6
2020-Aug-15 05:02 281 20.6
2020-Aug-15 04:47 281 21.1
2020-Aug-15 04:42 281 21.1
2020-Aug-15 04:37 281 21.1
2020-Aug-15 04:32 281 21.1
2020-Aug-15 04:17 281 21.7
2020-Aug-15 04:12 281 21.7
2020-Aug-15 04:07 281 21.7
2020-Aug-15 04:02 281 21.7
2020-Aug-15 03:47 281 21.7
2020-Aug-15 03:42 281 22.2
2020-Aug-15 03:37 281 22.2
2020-Aug-15 03:32 281 22.2
2020-Aug-15 03:17 281 22.2
2020-Aug-15 03:12 281 22.8
2020-Aug-15 03:07 281 22.8
2020-Aug-15 03:02 281 22.8
2020-Aug-15 02:47 266 23.3
2020-Aug-15 02:42 266 23.3
2020-Aug-15 02:37 255 23.3
2020-Aug-15 02:32 168 23.3
2020-Aug-15 02:17 152 23.3
2020-Aug-15 02:12 290 23.3
2020-Aug-15 02:07 344 23.3
2020-Aug-15 02:02 344 23.3
2020-Aug-15 01:47 344 23.3
2020-Aug-15 01:42 353 23.3
2020-Aug-15 01:37 353 23.3
2020-Aug-15 01:32 035 23.3
2020-Aug-15 01:17 042 23.3
2020-Aug-15 01:12 042 23.3
2020-Aug-15 01:07 042 23.3
2020-Aug-15 01:02 042 23.3
2020-Aug-15 00:47 032 23.3
2020-Aug-15 00:42 032 23.9
2020-Aug-15 00:37 032 23.9
2020-Aug-15 00:32 032 23.9
2020-Aug-15 00:17 032 24.4
2020-Aug-15 00:12 032 24.4
2020-Aug-15 00:07 031 25.0
2020-Aug-15 00:02 030 25.0
2020-Aug-14 23:47 030 25.6
2020-Aug-14 23:42 030 26.1
2020-Aug-14 23:37 030 26.1
2020-Aug-14 23:32 030 26.7
2020-Aug-14 23:17 248 27.8
2020-Aug-14 23:12 248 28.3
2020-Aug-14 23:07 245 28.3
2020-Aug-14 23:02 252 28.9
2020-Aug-14 22:47 334 28.9
2020-Aug-14 22:42 338 29.4
2020-Aug-14 22:37 264 29.4
2020-Aug-14 22:32 292 28.9
2020-Aug-14 22:17 226 28.3
2020-Aug-14 22:12 334 0 gusting 2 28.3
2020-Aug-14 22:07 300 28.3
2020-Aug-14 22:02 294 0 gusting 2 28.3
2020-Aug-14 21:47 227 28.9
2020-Aug-14 21:42 300 29.4
2020-Aug-14 21:37 118 0 gusting 2 29.4
2020-Aug-14 21:32 263 29.4
2020-Aug-14 21:17 089 0 gusting 2 30.6
2020-Aug-14 21:12 329 0 gusting 2 30.6
2020-Aug-14 21:07 195 0 gusting 2 30.6
2020-Aug-14 21:02 196 0 gusting 2 30.0
2020-Aug-14 20:47 235 0 gusting 4 29.4
2020-Aug-14 20:42 046 0 gusting 2 30.0
2020-Aug-14 20:37 282 29.4
2020-Aug-14 20:32 231 29.4
2020-Aug-14 20:17 009 30.0
2020-Aug-14 20:12 302 30.0
2020-Aug-14 20:07 130 30.0
2020-Aug-14 20:02 121 0 gusting 5 30.6
2020-Aug-14 19:47 299 29.4
2020-Aug-14 19:42 280 0 gusting 4 29.4
2020-Aug-14 19:37 289 29.4
2020-Aug-14 19:32 342 1 gusting 2 29.4
2020-Aug-14 19:17 142 1 gusting 4 28.9
2020-Aug-14 19:12 035 0 gusting 2 28.3
2020-Aug-14 19:07 170 0 gusting 4 28.3
2020-Aug-14 19:02 337 0 gusting 2 28.3
2020-Aug-14 18:47 225 28.3
2020-Aug-14 18:42 317 28.3
2020-Aug-14 18:37 259 28.3
2020-Aug-14 18:32 334 0 gusting 6 28.3
2020-Aug-14 18:17 041 0 gusting 2 28.9
2020-Aug-14 18:12 001 1 gusting 5 28.9
2020-Aug-14 18:07 188 0 gusting 2 28.9
2020-Aug-14 18:02 177 0 gusting 4 28.9
2020-Aug-14 17:47 243 0 gusting 2 28.9
2020-Aug-14 17:42 205 28.9
2020-Aug-14 17:37 173 28.9
2020-Aug-14 17:32 293 28.9
2020-Aug-14 17:17 072 28.9
2020-Aug-14 17:12 116 0 gusting 4 29.4
2020-Aug-14 17:07 179 0 gusting 2 29.4
2020-Aug-14 17:02 221 29.4
2020-Aug-14 16:47 327 0 gusting 2 29.4
2020-Aug-14 16:42 313 0 gusting 4 29.4
2020-Aug-14 16:37 307 1 gusting 2 29.4
2020-Aug-14 16:32 304 0 gusting 2 29.4
2020-Aug-14 16:17 138 29.4
2020-Aug-14 16:12 223 28.9
2020-Aug-14 16:07 200 28.9
2020-Aug-14 15:47 293 0 gusting 2 28.9
2020-Aug-14 15:42 194 0 gusting 2 28.9
2020-Aug-14 15:37 337 0 gusting 2 28.3
2020-Aug-14 15:32 286 1 gusting 6 28.3
2020-Aug-14 15:17 229 0 gusting 2 27.8
2020-Aug-14 15:12 307 0 gusting 2 27.8
2020-Aug-14 15:07 036 0 gusting 4 28.3
2020-Aug-14 15:02 342 1 gusting 5 28.3
2020-Aug-14 14:47 349 1 gusting 2 28.3
2020-Aug-14 14:42 200 0 gusting 1 27.8
2020-Aug-14 14:37 318 27.2
2020-Aug-14 14:32 296 26.7
2020-Aug-14 14:17 321 1 gusting 5 26.7
2020-Aug-14 14:12 317 0 gusting 2 27.2
2020-Aug-14 14:07 307 26.7
2020-Aug-14 14:02 318 0 gusting 2 26.7
2020-Aug-14 13:47 277 0 gusting 1 25.6
2020-Aug-14 13:42 002 0 gusting 5 25.6
2020-Aug-14 13:37 334 1 gusting 5 25.0
2020-Aug-14 13:32 295 1 gusting 6 25.0
2020-Aug-14 13:17 324 2 gusting 6 23.9
2020-Aug-14 13:12 23.9
2020-Aug-14 13:07 103 23.9
2020-Aug-14 13:02 137 23.3
2020-Aug-14 12:47 062 0 gusting 2 23.3
2020-Aug-14 12:42 312 0 gusting 1 22.8
2020-Aug-14 12:37 305 0 gusting 2 22.8
2020-Aug-14 12:32 297 22.8
2020-Aug-14 12:17 003 22.2
2020-Aug-14 12:12 093 22.2
2020-Aug-14 12:07 025 21.7
2020-Aug-14 12:02 103 0 gusting 1 21.7
2020-Aug-14 11:47 017 21.1
2020-Aug-14 11:42 018 21.1
2020-Aug-14 11:37 018 21.1
2020-Aug-14 11:32 018 21.1
2020-Aug-14 11:17 018 20.6
2020-Aug-14 11:12 018 20.6
2020-Aug-14 11:07 018 20.6
2020-Aug-14 11:02 018 20.6
2020-Aug-14 10:47 338 20.6
2020-Aug-14 10:42 341 20.6
2020-Aug-14 10:37 004 20.6
2020-Aug-14 10:32 331 20.6
2020-Aug-14 10:17 333 20.6
2020-Aug-14 10:12 313 21.1
2020-Aug-14 10:07 315 21.1
2020-Aug-14 10:02 315 20.6
2020-Aug-14 09:47 065 20.6
2020-Aug-14 09:42 065 20.6
2020-Aug-14 09:37 300 21.1
2020-Aug-14 09:32 021 21.1
2020-Aug-14 09:17 021 21.1
2020-Aug-14 09:12 021 21.1
2020-Aug-14 09:07 022 21.1
2020-Aug-14 09:02 022 21.1
2020-Aug-14 08:47 034 21.1
2020-Aug-14 08:42 088 21.1
2020-Aug-14 08:37 094 21.1
2020-Aug-14 08:32 025 21.1
2020-Aug-14 08:17 025 21.1
2020-Aug-14 08:12 025 21.1
2020-Aug-14 08:07 025 21.7
2020-Aug-14 08:02 025 21.7
2020-Aug-14 07:47 025 21.7
2020-Aug-14 07:42 025 21.7
2020-Aug-14 07:37 025 21.7
2020-Aug-14 07:32 026 21.7
2020-Aug-14 07:17 025 21.7
2020-Aug-14 07:12 025 21.7
2020-Aug-14 07:07 026 21.7
2020-Aug-14 07:02 025 21.7
2020-Aug-14 06:47 037 21.7
2020-Aug-14 06:42 037 21.7
2020-Aug-14 06:37 037 21.7
2020-Aug-14 06:32 037 21.7
2020-Aug-14 06:17 037 21.7
2020-Aug-14 06:12 037 21.7
2020-Aug-14 06:07 037 21.7
2020-Aug-14 06:02 037 21.7
2020-Aug-14 05:47 037 21.7
2020-Aug-14 05:42 037 21.7
2020-Aug-14 05:37 026 21.7
2020-Aug-14 05:32 026 21.7
2020-Aug-14 05:17 024 21.7
2020-Aug-14 05:12 024 21.7
2020-Aug-14 05:07 024 21.7
2020-Aug-14 05:02 024 21.7
2020-Aug-14 04:47 024 21.7
2020-Aug-14 04:42 041 21.7
2020-Aug-14 04:37 042 21.7
2020-Aug-14 04:32 042 21.7
2020-Aug-14 04:17 039 21.7
2020-Aug-14 04:12 034 21.7
2020-Aug-14 04:07 034 21.7
2020-Aug-14 04:02 034 21.7
2020-Aug-14 03:47 021 21.7
2020-Aug-14 03:42 357 21.7
2020-Aug-14 03:37 357 21.7
2020-Aug-14 03:32 358 21.7
2020-Aug-14 03:17 357 21.7
2020-Aug-14 03:12 357 22.2
2020-Aug-14 03:07 357 22.2
2020-Aug-14 03:02 357 22.2
2020-Aug-14 02:47 357 22.2
2020-Aug-14 02:42 357 22.2
2020-Aug-14 02:37 358 22.2
2020-Aug-14 02:32 356 22.2
2020-Aug-14 02:17 287 22.2
2020-Aug-14 02:12 287 22.8
2020-Aug-14 02:07 287 22.8
2020-Aug-14 02:02 044 22.8
2020-Aug-14 01:47 333 22.8
2020-Aug-14 01:42 333 22.8
2020-Aug-14 01:37 337 22.8
2020-Aug-14 01:32 338 22.8
2020-Aug-14 01:17 309 23.3
2020-Aug-14 01:12 309 23.3
2020-Aug-14 01:07 309 23.3
2020-Aug-14 01:02 309 23.3
2020-Aug-14 00:47 156 23.3
2020-Aug-14 00:42 156 23.3
2020-Aug-14 00:37 156 23.9
2020-Aug-14 00:17 156 24.4
2020-Aug-14 00:12 156 24.4
2020-Aug-14 00:07 156 24.4
2020-Aug-14 00:02 156 25.0
2020-Aug-13 23:07 155 26.7
2020-Aug-13 23:02 274 26.7
2020-Aug-13 22:47 240 26.7
2020-Aug-13 22:42 240 26.1
2020-Aug-13 22:37 240 25.6
2020-Aug-13 22:32 240 25.0
2020-Aug-13 22:17 240 25.0
2020-Aug-13 21:47 239 25.0
2020-Aug-13 21:42 239 25.0
2020-Aug-13 21:37 239 24.4
2020-Aug-13 21:32 239 24.4
2020-Aug-13 21:17 293 25.0
2020-Aug-13 21:12 004 25.0
2020-Aug-13 21:07 006 25.0
2020-Aug-13 21:02 006 25.0
2020-Aug-13 20:47 020 25.0
2020-Aug-13 20:42 306 25.0
2020-Aug-13 20:37 278 25.0
2020-Aug-13 20:32 284 25.6
2020-Aug-13 20:17 285 26.1
2020-Aug-13 20:12 284 26.1
2020-Aug-13 20:07 151 26.1
2020-Aug-13 20:02 336 26.1
2020-Aug-13 19:47 351 25.6
2020-Aug-13 19:42 351 25.0
2020-Aug-13 19:37 037 25.0
2020-Aug-13 19:32 352 25.0
2020-Aug-13 19:17 026 25.0
2020-Aug-13 19:12 026 25.0
2020-Aug-13 19:07 025 25.0
2020-Aug-13 19:02 025 24.4
2020-Aug-13 18:47 341 23.9
2020-Aug-13 18:42 354 0 gusting 1 23.9
2020-Aug-13 18:37 051 23.9
2020-Aug-13 18:32 028 23.9
2020-Aug-13 18:17 182 23.3
2020-Aug-13 18:12 171 23.3
2020-Aug-13 18:07 219 23.3
2020-Aug-13 18:02 253 22.8
2020-Aug-13 17:47 191 22.8
2020-Aug-13 17:42 218 22.8
2020-Aug-13 17:37 230 22.8
2020-Aug-13 17:32 151 22.8
2020-Aug-13 17:17 057 0 gusting 2 23.3
2020-Aug-13 17:12 310 23.3
2020-Aug-13 17:07 012 0 gusting 2 23.3
2020-Aug-13 17:02 277 23.3
2020-Aug-13 16:47 267 23.9
2020-Aug-13 16:42 282 0 gusting 2 23.9
2020-Aug-13 16:37 306 0 gusting 2 24.4
2020-Aug-13 16:32 291 24.4
2020-Aug-13 16:17 325 23.9
2020-Aug-13 16:12 291 23.9
2020-Aug-13 16:07 328 1 gusting 2 24.4
2020-Aug-13 16:02 226 24.4
2020-Aug-13 15:47 197 25.6
2020-Aug-13 15:42 163 0 gusting 1 25.6
2020-Aug-13 15:37 320 25.6
2020-Aug-13 15:32 320 25.6
2020-Aug-13 15:17 319 26.1
2020-Aug-13 15:12 319 26.1
2020-Aug-13 15:07 319 26.1
2020-Aug-13 15:02 319 26.1
2020-Aug-13 14:47 333 25.6
2020-Aug-13 14:42 337 25.6
2020-Aug-13 14:37 337 25.6
2020-Aug-13 14:32 326 25.6
2020-Aug-13 14:17 205 25.6
2020-Aug-13 14:12 151 25.6
2020-Aug-13 14:07 081 0 gusting 2 25.6
2020-Aug-13 14:02 249 25.6
2020-Aug-13 13:47 159 26.1
2020-Aug-13 13:42 197 26.1
2020-Aug-13 13:37 288 26.1
2020-Aug-13 13:32 327 26.1
2020-Aug-13 13:17 311 25.6
2020-Aug-13 13:12 223 25.0
2020-Aug-13 13:07 277 25.0
2020-Aug-13 13:02 055 25.0
2020-Aug-13 12:47 321 24.4
2020-Aug-13 12:42 347 24.4
2020-Aug-13 12:37 336 0 gusting 1 24.4
2020-Aug-13 12:32 319 0 gusting 1 23.9
2020-Aug-13 12:17 131 23.9
2020-Aug-13 12:12 131 23.9
2020-Aug-13 12:07 131 23.9
2020-Aug-13 12:02 130 23.3
2020-Aug-13 11:47 354 23.3
2020-Aug-13 11:42 339 23.3
2020-Aug-13 11:37 130 22.8
2020-Aug-13 11:32 130 22.8
2020-Aug-13 11:17 066 22.8
2020-Aug-13 11:12 022 22.2
2020-Aug-13 11:07 030 22.2
2020-Aug-13 11:02 309 22.2
2020-Aug-13 10:47 319 22.2
2020-Aug-13 10:42 319 22.2
2020-Aug-13 10:37 319 22.2
2020-Aug-13 10:32 319 22.2
2020-Aug-13 10:17 319 22.2
2020-Aug-13 10:12 319 22.2
2020-Aug-13 10:07 319 22.2
2020-Aug-13 10:02 319 22.2